Wind_Speed
33 32 30 28 24 23 22 21 20 20 20 18 16 15 16 17 15 14 13 14 13 12
33 33 31 29 26 24 22 20 18 19 19 19 19 17 17 17 17 15 14 13 13 13
34 32 31 28 27 27 24 21 19 19 19 19 20 19 20 19 18 18 17 15 14 15
33 33 32 31 29 27 26 25 23 20 19 18 19 19 20 19 18 18 18 15 15 15
33 30 32 32 30 28 27 26 25 22 21 19 19 21 21 21 21 21 20 18 16 20
33 34 35 33 32 31 29 28 27 25 24 22 21 21 22 19 20 22 21 19 18 21
34 36 35 34 33 32 30 30 29 26 26 25 24 22 22 21 20 20 19 18 17 20
32 32 33 32 33 33 32 31 25 7 27 32 28 27 24 22 23 22 20 18 17 18
27 29 33 34 35 32 31 23 13 24 26 32 33 28 26 23 23 24 23 21 19 18
26 29 32 33 33 32 27 13 23 34 31 30 24 14 23 25 24 24 25 24 21 19
24 28 29 31 33 31 27 23 31 34 26 24 22 14 24 27 23 23 24 24 22 20
21 27 29 30 32 28 20 9 20 25 26 23 22 23 19 22 22 23 25 22 20 19
14 18 25 29 24 22 12 6 10 35 30 17 13 12 13 17 22 22 22 19 17 18
13 13 14 18 20 20 18 13 17 24 19 13 11 14 14 16 22 23 23 20 18 19
Wind_Direction
227 230 233 232 232 234 235 238 240 241 242 241 241 244 237 238 239 238 240 243 248 254
227 231 234 235 235 235 236 237 239 242 242 238 236 239 234 237 239 239 238 242 247 253
228 232 235 238 237 235 235 234 237 239 240 235 234 235 232 237 242 243 243 244 255 254
228 233 236 238 239 239 239 237 236 236 235 230 228 230 230 235 239 242 244 242 249 246
229 233 236 237 240 242 241 238 238 236 235 232 230 225 229 235 240 238 241 244 247 247
232 238 235 238 237 240 243 242 241 240 238 234 231 227 228 235 238 241 241 246 241 242
228 229 237 239 238 240 241 241 240 245 246 241 238 232 231 234 237 234 243 250 241 235
238 239 240 244 245 241 240 239 231 242 272 254 241 237 233 234 234 234 237 244 235 230
244 243 245 247 249 246 246 230 249 230 234 240 237 237 237 234 231 234 236 239 239 234
247 246 250 253 253 247 235 189 291 256 239 243 250 251 261 244 232 233 235 239 238 234
252 252 256 255 257 253 242 232 229 245 240 241 238 257 252 249 239 233 236 238 237 230
270 264 263 258 260 255 245 29 353 277 249 238 235 247 247 234 230 234 235 234 231 225
298 274 267 272 262 264 236 266 92 273 270 267 262 252 239 223 224 227 228 223 225 226
335 319 301 276 275 275 263 253 239 258 261 269 273 275 262 232 220 216 215 213 220 226
Height
811 815 818 821 823 825 827 830 832 834 836 837 839 841 842 843 844 846 847 849 849 850
806 810 812 816 819 821 823 825 827 830 831 833 834 836 838 839 841 842 844 845 847 847
801 805 808 811 813 815 818 820 822 824 825 827 829 831 833 834 837 839 840 842 843 844
794 798 802 805 807 809 812 815 817 819 821 821 823 826 828 829 832 834 836 839 840 841
789 793 796 798 801 803 806 808 810 813 816 818 819 820 822 824 826 828 831 834 837 837
785 787 789 791 794 797 799 802 805 808 810 812 813 814 816 818 820 822 825 828 831 833
777 779 781 783 786 790 792 795 798 803 806 806 809 809 809 811 814 816 819 822 825 828
772 773 775 777 777 780 783 789 792 798 792 802 801 803 804 805 808 810 813 816 819 823
769 770 769 770 771 775 779 782 785 792 793 791 792 794 798 800 802 805 808 810 813 817
766 765 765 765 766 770 773 778 783 785 784 785 785 789 788 796 797 799 802 805 808 812
761 762 761 761 761 764 765 766 768 773 773 775 778 780 783 789 792 793 797 800 804 807
761 761 759 757 758 760 764 773 769 778 774 769 769 772 775 781 785 788 791 796 799 803
756 756 756 757 758 758 763 759 755 766 774 768 767 771 771 773 778 782 786 791 795 799
755 754 753 755 755 757 759 764 765 766 769 764 766 770 770 770 771 773 779 785 790 794